Lid_Strength_Index
8 8 8 8 9 9 8 7 6 6 5 4 4 3 3 2 1 1 1 2 1 4
10 10 10 10 10 9 8 8 7 6 6 5 4 3 3 3 3 2 1 1 1 2
11 11 11 11 9 9 8 8 7 7 6 6 5 4 4 4 3 3 2 1 2 2
12 12 11 10 9 8 8 8 8 7 7 7 6 6 5 5 5 4 3 1 2 2
12 11 10 9 8 8 9 8 9 8 8 8 7 7 7 7 6 5 4 3 2 2
12 11 10 9 9 8 8 9 8 8 9 8 8 8 7 7 8 7 5 3 2 2
12 11 9 8 9 9 9 9 9 9 8 9 8 8 8 8 8 7 5 4 2 2
11 10 9 10 9 9 9 9 9 9 9 8 8 8 8 8 8 8 7 6 3 2
12 11 10 10 10 10 9 9 9 9 9 9 8 9 9 9 9 9 8 8 4 4
12 11 11 11 10 11 10 9 10 10 9 9 8 8 8 9 9 8 8 8 8 8
13 12 11 12 11 11 10 11 11 10 9 9 9 8 8 9 9 8 8 8 8 9
13 12 12 12 12 12 11 12 11 11 11 11 10 8 8 9 10 11 11 10 10 10
13 12 12 12 12 12 12 12 12 12 11 11 10 8 8 10 11 12 12 12 12 11
13 13 11 11 12 12 12 12 12 12 12 12 11 10 9 9 11 12 12 12 12 11